Probability
15 9 2 2 2 1 0 0 0 0 1 1 0 0 0 0 0 0 0 0 0 0 0 0 0 0 0 0 0 0 1 2 3 4 4 3 2 1 0 0 0 0 0 0 0 1 1 1 0
12 8 3 1 1 0 0 0 0 1 2 1 0 0 0 0 0 0 0 0 0 0 0 0 0 0 0 1 1 0 0 1 2 4 4 3 2 1 0 0 0 0 0 0 0 0 0 0 0
10 7 4 1 0 0 0 0 0 1 3 3 1 0 0 0 1 1 1 0 0 0 0 0 0 0 0 1 1 0 0 0 1 2 3 3 2 1 0 0 0 0 0 0 0 0 0 0 0
10 8 5 3 1 0 0 0 0 2 4 5 3 1 0 1 2 3 2 1 0 0 0 0 0 0 0 1 1 0 0 0 0 1 2 2 1 0 0 0 0 0 0 0 0 0 0 0 0
9 8 7 5 2 0 0 0 1 3 5 5 4 2 1 3 6 5 4 2 1 0 0 0 0 0 0 0 0 0 1 0 0 0 1 1 0 0 0 0 0 0 0 0 0 0 0 0 0
10 7 5 4 1 0 0 0 1 3 6 5 4 3 2 5 8 7 4 2 1 0 0 0 0 0 0 0 0 0 0 0 0 0 0 0 0 0 0 0 0 0 0 0 0 0 0 0 0
9 6 3 1 0 0 0 0 1 3 5 6 5 3 2 3 6 7 5 3 1 0 0 0 0 0 0 0 0 0 0 0 0 0 0 0 0 0 0 0 0 0 0 0 0 0 0 0 0
7 4 2 1 0 0 0 1 1 3 5 5 4 2 1 2 4 7 6 3 1 1 0 0 0 0 0 0 0 0 0 0 0 0 0 0 0 0 0 0 0 0 0 0 0 0 0 0 0
4 2 1 0 0 0 1 2 3 4 5 4 3 2 2 3 5 7 8 5 3 2 1 0 0 0 0 0 0 0 0 0 0 0 0 0 0 0 0 1 0 0 0 0 0 0 0 0 0
2 1 0 0 0 1 2 2 3 5 5 4 3 3 4 5 7 9 9 7 5 3 1 1 0 0 0 0 0 0 0 0 0 0 0 0 0 0 1 2 1 0 0 0 0 0 0 0 0
1 0 0 0 0 1 2 1 2 4 4 3 3 3 3 5 8 9 9 7 4 2 2 2 1 0 0 0 0 0 0 0 0 0 0 0 0 0 1 2 2 0 0 0 0 0 0 0 0
0 0 0 0 0 1 2 1 1 2 3 4 3 3 2 4 6 7 8 7 4 2 3 3 3 1 1 0 0 0 0 0 1 0 0 0 0 0 0 1 1 0 0 0 0 0 0 0 0
0 0 0 0 0 2 3 2 2 3 4 5 4 2 1 2 4 6 7 8 7 6 5 5 5 3 2 1 0 0 0 0 0 0 0 0 0 0 0 0 0 0 0 1 0 0 0 0 0
0 0 0 0 0 1 3 3 3 5 6 7 4 2 2 3 5 5 7 10 11 11 10 8 6 4 2 1 0 0 0 0 0 0 0 0 0 0 0 0 0 0 0 0 0 0 0 0 0
0 0 0 0 0 1 2 3 5 6 7 6 4 2 2 4 6 7 9 10 13 15 14 11 6 3 1 0 0 0 0 0 0 0 0 0 1 1 0 0 0 0 0 0 0 0 0 0 0
0 0 0 0 0 0 1 2 5 7 7 5 3 2 1 2 6 9 12 12 13 16 14 10 6 3 1 0 0 0 0 0 0 0 0 0 1 2 1 0 0 0 0 0 0 0 0 0 0
0 0 0 0 0 0 0 1 4 7 6 4 3 3 2 3 7 12 14 13 12 13 12 8 5 4 2 1 0 0 0 0 0 0 0 0 1 1 1 0 0 0 0 0 0 0 0 0 0
0 0 0 0 0 0 0 0 3 6 6 4 3 3 4 7 12 15 15 14 11 11 10 7 5 4 3 2 1 0 0 0 0 0 0 1 1 1 1 1 1 0 0 0 0 0 0 0 0
0 0 0 0 0 0 0 1 3 5 6 5 4 4 6 11 15 18 18 17 15 13 11 10 7 5 4 5 4 2 2 1 0 0 0 1 3 3 2 2 2 1 0 0 0 0 0 0 0
0 0 0 0 0 0 0 1 2 5 7 6 5 4 7 13 19 22 23 22 22 19 16 13 10 7 7 8 8 6 4 3 1 0 0 1 3 5 5 4 3 2 0 0 0 0 0 0 0
0 0 0 0 0 0 0 0 1 4 8 8 6 5 8 15 22 25 25 25 25 24 19 15 11 10 10 10 9 8 7 5 2 0 0 1 3 5 5 4 3 1 0 0 0 0 0 0 0
0 0 0 0 0 0 0 0 1 4 7 8 8 8 12 20 25 26 27 27 26 25 21 16 13 12 12 10 9 8 8 6 3 1 0 0 2 3 4 4 3 2 1 1 1 0 0 0 0
0 0 0 0 0 0 0 0 1 4 7 8 9 12 17 25 29 29 30 29 27 27 26 22 17 14 14 11 8 7 7 6 4 1 0 1 2 2 3 5 5 5 4 3 2 1 0 0 0
0 0 0 0 0 0 0 0 2 5 7 8 11 15 21 28 33 33 34 33 31 33 34 30 23 19 16 14 10 9 9 8 6 4 3 3 4 3 4 6 7 8 9 7 3 1 0 0 1
0 0 0 0 0 0 0 2 4 7 9 10 13 17 21 26 31 33 34 35 36 38 40 37 31 25 21 17 14 13 12 11 9 7 7 7 6 5 5 7 9 11 12 10 5 2 2 2 2
0 0 0 0 0 0 1 5 10 13 14 13 14 16 19 21 25 29 30 32 36 41 43 42 37 31 26 21 17 16 16 14 10 8 9 9 8 8 8 11 13 14 14 12 8 5 4 4 4
0 0 0 0 0 1 3 7 14 17 17 15 14 17 18 18 23 28 28 30 36 42 43 43 41 36 31 26 21 18 17 15 12 9 9 10 10 10 12 15 16 15 14 13 11 9 7 7 6
0 0 0 0 0 1 3 8 12 15 15 15 16 18 19 20 24 29 32 34 39 43 46 45 43 39 35 30 23 18 16 14 12 11 11 12 12 14 17 18 17 15 13 13 13 11 9 8 7
0 0 0 0 0 1 4 7 10 12 14 16 17 18 21 23 26 31 37 41 44 47 48 47 42 38 35 31 25 20 17 13 11 11 13 14 16 19 22 22 18 15 14 15 15 12 9 8 7
0 0 0 0 0 1 4 7 8 11 13 16 18 18 21 25 28 32 39 46 49 49 48 47 40 35 34 31 28 23 19 14 11 10 12 16 19 22 25 25 21 16 16 17 17 14 10 8 7
Wind_Speed
11 8 3 1 2 3 3 3 7 8 7 8 10 11 9 7 5 7 4 10 11 9 7 10 13 14 14 13 14 14 14 15 15 15 15 14 14 14 14 13 13 13 12 12 12 12 12 12 12
8 6 2 1 3 3 2 4 10 10 12 13 12 12 10 8 8 10 6 10 12 10 7 9 13 13 13 13 13 13 13 13 14 14 13 13 13 13 13 12 12 11 12 11 11 11 10 11 11
8 4 1 2 1 4 5 6 11 13 11 9 8 7 7 7 9 7 8 14 11 8 7 9 14 13 13 12 13 13 13 13 13 12 12 12 12 12 12 12 11 11 11 10 10 10 9 9 9
4 2 1 2 3 4 7 9 13 14 10 9 10 8 5 6 7 10 14 14 12 8 7 9 15 14 13 12 12 13 12 12 12 12 11 11 11 11 11 10 10 10 10 9 9 9 9 9 8
1 2 3 2 3 5 8 12 13 10 6 9 11 9 6 5 13 16 15 14 13 9 6 8 14 14 13 13 12 12 12 11 11 11 11 10 10 10 10 9 9 9 9 8 8 8 8 8 7
2 2 3 2 5 7 8 11 13 14 13 12 12 9 5 8 14 15 15 13 12 11 8 8 14 14 13 13 12 12 11 11 11 11 10 10 9 9 9 9 9 9 8 8 8 7 7 6 5
2 3 2 4 6 7 8 8 11 13 12 9 10 8 6 8 11 14 13 12 11 10 8 6 7 9 12 12 12 12 11 11 10 10 10 10 9 9 9 8 8 8 8 8 8 7 6 5 4
4 3 1 3 7 6 7 7 10 13 10 12 9 9 8 10 12 12 12 11 10 9 8 6 6 5 5 6 11 11 11 10 10 10 9 9 9 9 9 8 8 8 8 8 8 7 6 5 4
3 3 2 5 7 5 8 10 8 8 11 7 5 7 12 16 14 12 11 8 8 9 7 7 6 5 5 5 8 9 10 9 9 7 9 7 3 3 4 6 8 8 8 8 7 7 6 5 4
5 5 7 7 8 9 11 13 10 8 10 8 10 11 15 15 14 13 12 12 11 10 9 8 8 7 6 6 5 3 4 4 4 3 3 2 2 2 4 6 8 8 8 8 7 7 5 3 1
5 6 5 5 9 11 10 10 8 12 8 12 17 17 16 14 12 13 12 11 12 12 11 9 9 8 7 4 4 2 2 2 3 4 4 3 2 2 2 2 3 4 5 3 4 3 2 2 2
2 3 5 5 7 10 10 8 8 9 11 16 19 19 16 14 13 12 12 11 10 10 10 9 9 8 7 6 4 4 3 3 3 4 4 3 2 2 2 2 2 2 1 2 2 2 3 3 3
2 1 2 5 7 8 9 9 9 8 14 17 17 16 15 14 12 10 10 9 9 9 9 9 9 8 7 6 5 5 4 4 4 3 4 4 3 3 2 2 2 2 2 3 3 3 3 3 3
1 0 1 4 6 7 11 8 8 10 17 18 17 14 14 14 13 11 10 9 9 9 9 8 8 8 7 5 4 4 4 4 4 3 4 5 4 3 3 2 2 2 3 3 3 4 3 3 3
2 3 3 1 4 6 11 5 8 16 18 18 17 15 14 13 13 13 13 12 11 11 9 9 9 8 7 6 5 4 4 4 4 4 4 5 4 4 4 3 2 3 3 3 2 2 2 2 2
4 4 2 4 2 5 9 6 8 16 18 16 15 15 13 12 13 13 13 11 11 11 10 9 9 8 7 6 5 3 4 4 4 4 4 5 5 5 4 3 3 3 2 2 2 2 2 2 2
4 0 4 6 3 4 6 6 10 15 17 15 14 13 13 11 11 11 13 13 13 12 11 9 8 8 7 6 4 3 3 4 4 4 4 5 5 5 4 3 3 3 2 2 2 2 2 2 3
5 3 4 5 4 2 3 5 11 15 16 16 14 12 12 14 13 13 13 13 12 12 11 9 9 8 6 4 3 2 2 2 3 4 5 6 5 5 4 3 3 3 2 2 2 2 2 2 2
6 5 5 6 5 2 4 6 11 13 13 14 13 12 13 14 11 12 13 13 12 10 10 10 9 8 6 4 3 3 3 2 2 4 6 6 6 6 5 4 3 3 3 3 3 2 2 2 1
7 5 4 5 5 2 2 5 9 13 15 16 17 16 14 11 10 12 12 13 13 12 11 10 10 9 8 5 4 3 3 3 3 3 4 6 6 6 6 5 4 4 3 3 3 2 1 1 1
7 6 6 5 4 2 2 2 3 7 8 9 12 13 14 17 17 15 14 13 13 13 13 12 11 9 8 7 3 2 1 0 1 2 3 4 6 6 5 5 4 4 4 3 3 3 3 2 2
7 8 7 6 2 3 3 2 6 7 6 10 11 11 12 14 14 14 15 15 15 14 13 11 11 9 8 7 6 6 5 4 4 3 3 3 4 5 5 5 5 4 4 4 4 4 3 3 2
8 7 5 4 3 1 1 4 7 3 6 9 11 12 14 14 15 16 16 16 14 13 12 11 10 9 8 8 8 6 5 4 3 2 3 3 3 4 5 5 5 4 4 4 4 3 3 3 3
5 0 3 3 4 1 5 4 7 5 9 10 10 12 12 14 15 14 13 12 10 11 10 10 10 9 9 9 8 8 7 5 4 4 4 3 2 3 4 4 4 5 4 4 4 4 4 3 3
2 5 3 4 3 6 4 2 8 7 7 10 11 11 12 12 13 11 10 10 11 12 12 11 11 9 9 9 8 8 7 6 7 5 5 4 3 3 4 4 4 4 4 4 4 3 3 3 3
5 9 8 6 5 5 3 3 6 3 3 4 6 7 8 10 10 11 12 11 11 12 12 11 11 9 9 8 8 6 6 5 4 5 5 5 4 4 4 4 4 5 5 5 4 3 3 3 3
5 5 9 8 3 1 4 4 4 2 2 2 4 5 6 9 11 11 11 11 11 12 12 12 11 9 8 8 7 6 6 5 5 5 5 4 4 4 4 4 5 5 5 4 4 3 4 3 3
7 7 6 6 5 3 3 4 4 3 2 2 4 4 5 6 7 9 10 11 11 11 10 10 10 9 8 8 7 7 6 6 5 4 5 5 5 4 4 5 5 5 4 4 4 3 3 4 3
2 1 4 5 6 7 4 6 6 7 6 5 3 4 6 6 6 8 9 9 9 8 9 9 9 8 7 7 7 6 6 6 5 5 5 5 4 5 5 5 5 5 5 4 4 4 4 4 3
3 3 6 5 4 5 5 6 3 5 5 6 5 4 5 6 7 7 8 7 8 8 8 8 9 8 9 8 7 7 6 6 6 6 6 5 5 5 5 5 5 5 5 5 5 5 5 5 4
Wind_Direction
161 155 156 134 52 54 82 98 105 90 73 73 81 84 84 68 97 124 141 139 136 136 131 122 119 119 118 116 113 112 110 110 113 114 114 115 116 118 119 119 119 119 120 121 120 121 123 124 124
157 160 157 75 75 85 77 100 99 103 121 111 88 87 80 74 88 113 130 141 138 136 133 128 125 123 120 119 118 117 115 115 116 117 117 118 118 121 123 122 122 122 123 124 124 126 127 129 129
167 177 127 75 111 141 131 118 110 110 114 102 94 74 76 103 116 131 144 142 136 133 134 136 131 127 126 124 121 120 119 118 119 121 123 123 123 125 127 126 125 126 128 129 130 132 134 134 134
163 145 56 76 133 164 138 131 119 111 90 84 96 77 72 111 128 135 140 141 136 136 138 141 135 132 131 129 126 125 125 124 124 126 128 129 130 132 132 132 131 132 132 134 135 137 140 139 139
132 107 60 64 115 118 122 126 122 111 94 94 97 98 84 89 121 133 142 144 140 140 142 141 138 135 134 132 130 129 129 129 131 132 132 133 134 137 138 137 138 139 140 141 144 144 145 144 143
124 98 82 102 108 106 116 120 112 105 112 109 107 106 103 127 133 142 146 145 144 144 145 143 144 141 139 138 136 135 135 136 136 135 136 138 140 143 145 146 146 147 147 150 152 152 152 151 152
152 130 154 140 117 118 130 126 121 129 131 131 127 106 121 146 146 146 145 143 143 145 146 147 149 147 147 146 143 142 142 143 144 143 144 146 147 149 152 155 156 157 158 160 160 163 164 165 173
178 109 110 124 120 124 138 123 128 132 126 133 133 130 153 166 149 139 140 141 144 149 152 153 150 149 150 150 151 149 149 151 153 152 152 153 155 159 161 162 168 169 169 169 170 171 177 186 194
149 90 179 165 142 147 135 114 114 107 121 140 125 135 151 149 142 136 135 141 152 157 161 163 160 160 159 159 161 156 156 159 160 161 164 160 154 158 166 174 174 178 179 180 182 184 189 198 210
148 159 204 186 155 153 144 135 132 114 112 107 107 121 140 144 145 149 154 158 165 169 174 173 169 169 167 169 156 159 161 161 164 168 170 162 172 185 185 184 185 187 188 189 194 196 201 212 225
166 174 186 159 150 149 145 144 129 129 138 150 146 149 153 154 156 159 165 167 171 171 174 176 174 174 173 167 161 166 166 168 180 182 179 177 185 188 182 181 196 194 194 195 202 205 210 218 228
154 180 163 162 150 147 149 144 136 148 163 160 153 154 157 161 165 167 168 170 166 166 170 170 171 171 173 165 167 172 174 182 190 191 182 172 172 172 169 177 193 189 184 187 200 210 224 232 237
98 121 146 158 145 146 139 140 135 141 144 149 151 156 161 166 168 170 168 166 162 161 163 165 168 168 168 164 174 176 184 187 190 186 182 171 167 172 171 181 191 197 193 195 204 215 221 224 236
258 16 128 151 144 145 129 130 119 147 147 151 158 165 168 168 167 166 166 167 165 161 162 163 161 162 160 163 171 175 183 183 179 187 185 175 172 175 171 179 191 203 199 196 199 211 218 224 227
34 17 353 163 153 148 121 125 153 156 153 158 167 172 171 172 169 169 171 169 166 162 160 161 161 160 160 166 175 173 180 178 181 190 189 183 180 179 175 176 194 208 201 196 197 217 223 229 234
22 33 333 279 170 163 127 174 175 160 158 165 174 177 174 178 176 172 169 165 163 160 161 168 167 165 168 171 177 175 178 178 184 186 190 190 187 180 171 174 197 206 197 189 193 201 214 239 243
15 338 268 284 232 174 141 175 176 168 164 169 177 180 175 177 177 173 170 167 166 165 165 170 166 171 177 177 180 181 178 182 184 182 188 194 193 186 174 183 198 193 192 202 212 199 198 228 248
252 255 266 265 254 165 168 180 172 177 174 176 178 179 175 178 182 177 173 170 168 168 168 169 169 177 177 172 165 173 184 191 188 189 196 197 198 194 180 188 198 187 185 206 211 213 214 223 238
218 243 261 264 253 203 191 181 179 181 181 179 181 182 182 184 181 175 173 171 168 169 170 171 171 178 171 168 169 176 200 206 201 205 203 198 197 195 187 193 190 188 194 211 210 200 215 238 216
230 245 253 274 276 237 190 199 189 184 190 187 184 185 185 180 176 178 176 173 174 175 176 175 176 178 180 181 177 179 184 202 205 208 204 199 194 193 194 189 191 190 192 213 212 197 193 242 180
251 219 211 225 284 335 110 322 223 213 202 195 191 189 185 184 181 181 181 181 178 180 181 182 183 182 184 179 162 160 140 175 197 215 212 211 199 196 200 194 191 193 187 202 209 196 190 219 238
247 230 207 215 168 267 156 214 262 216 204 199 195 191 191 192 186 183 183 184 185 187 184 181 181 182 182 175 170 172 181 195 207 202 206 211 202 198 203 198 192 192 190 198 210 197 190 184 218
226 230 215 219 177 292 310 149 265 202 205 209 202 196 196 192 187 188 187 186 187 185 182 181 179 183 182 180 181 183 193 201 201 193 200 207 207 204 204 198 195 195 196 199 202 190 190 186 191
208 84 2 37 75 268 244 174 251 212 204 205 205 199 196 191 188 189 186 178 179 178 177 177 180 186 184 183 185 188 193 193 188 199 199 201 205 216 215 201 198 198 196 196 195 191 192 198 194
112 98 27 343 359 250 255 178 245 238 200 192 195 197 194 191 187 182 177 175 178 180 178 176 179 186 187 187 190 192 193 189 192 197 198 192 199 212 222 211 203 203 202 197 190 189 197 196 197
208 147 165 200 217 263 304 214 248 239 186 164 168 180 179 180 183 182 182 180 179 181 180 177 179 181 181 186 191 189 187 189 195 195 192 197 206 213 214 210 208 208 200 197 191 197 207 200 206
204 192 178 155 179 196 267 270 298 344 64 90 116 130 153 173 180 181 176 175 177 182 182 178 176 177 181 185 183 184 188 190 195 196 195 202 211 214 211 207 204 206 202 197 187 200 206 199 207
187 172 108 124 157 214 258 244 228 222 189 130 122 133 152 161 173 175 172 174 176 180 177 168 169 176 178 180 183 188 191 193 192 192 204 211 216 219 205 203 201 201 198 196 188 196 203 197 207
306 120 128 137 159 161 205 257 218 188 177 148 138 140 152 154 158 172 175 177 170 163 164 165 171 173 177 185 186 189 190 191 192 199 210 216 220 215 211 206 200 199 199 195 190 198 187 185 197
192 197 152 157 216 168 166 251 257 165 146 135 130 123 142 151 148 152 157 150 150 156 164 172 175 174 184 186 187 193 194 189 196 205 211 211 218 216 207 201 198 201 200 197 193 201 193 186 189